カタログに戻る

FENGYUN 1C DEB

運用中SSO
NORAD 31016·DEBRIS·🇨🇳 China

打ち上げ May 10, 1999 から Taiyuan Satellite Launch Center

Loading…

次のパス (今後24時間)

TLE

最新Source: Space-Track

元期: Sep 14, 2026, 06:32 UTC

1 31016U 99025BDJ 26257.27234091  .00000319  00000-0  12875-3 0  9995
2 31016  98.4268 269.8302 0112597 178.9369 243.5368 14.30847766 14101

AllMySatでFENGYUN 1C DEBをリアルタイム追跡

Download on the App Store